Location: Newark
(13.0328°N, 9.6142°E)
Time: 13:31:53
(UTC+00:00)

N. Korean satellite - Visible Passes

Search period start: 22 October 2019 00:00
Search period end: 01 November 2019 00:00
Orbit: 455 x 508 km, 97.2° (Epoch: 21 October)

Date Brightness Start Highest point End Pass type
(mag) Time Alt. Az. Time Alt. Az. Time Alt. Az.
22 Oct 10.4 04:08:43 10° ENE 04:10:08 12° E 04:11:33 10° ESE visible
22 Oct 10.1 17:35:45 10° SW 17:37:31 14° W 17:39:18 10° WNW visible
24 Oct 7.5 04:49:15 10° NNE 04:52:52 57° E 04:56:31 10° S visible
25 Oct 9.5 04:24:41 10° NE 04:27:36 22° E 04:30:31 10° SSE visible
26 Oct 9.8 17:27:15 10° SW 17:29:38 18° W 17:32:02 10° NW visible
28 Oct 8.2 04:41:30 10° NNE 04:45:02 42° E 04:48:33 10° S visible
29 Oct 10.0 04:17:15 10° ENE 04:19:44 17° E 04:22:12 10° SE visible
30 Oct 9.3 17:18:54 10° SSW 17:21:42 24° W 17:24:31 10° NW visible
